パンスターズ彗星

C/2016 R2 ( PanSTARRS )

English version
Home page
Updated on March 25, 2017

---------------------------------------------------------------------

・ プロフィール

発見日 2016年9月7日
発見光度 19.1等
発見者 Pan-STARRS 1 telescope (Haleakala)

・ 写真集

・ 軌道要素

Epoch 2018 May 2.0 TT = JDT 2458240.5
T 2018 May  9.60205 TT                                  MPCW
q   2.6024045            (2000.0)            P               Q
z  +0.0014236      Peri.   33.19301     -0.14728573     -0.52443102
 +/-0.0000073      Node    80.56943     +0.61561570     -0.71222554
e   0.9962952      Incl.   58.22327     +0.77416033     +0.46659070
From 163 observations 2016 Aug. 30-2017 Feb. 28, mean residual 0".5.

・ 星図

・ 光度変化

        m1 = 4.0 + 5 logΔ + 10.0 log r

---------------------------------------------------------------------

軌道要素はM.P.E.C. 2017-E59に掲載されたものです。
星図はステラナビゲータ Ver.10 (アストロアーツ) で作成したものです。
光度グラフはComet for Windowsで作成したものです。

---------------------------------------------------------------------

Copyright(C) Seiichi Yoshida (comet@aerith.net). All rights reserved.